owner,sensor,date,latitude,longitude,vertical_datum,sea_water_practical_salinity,qcFlag 
TCOON,ioos:station:TCOON:043:1,2014-02-01T00:30:00Z,27.8838,-97.5332,0.0,33.2,1111122 
TCOON,ioos:station:TCOON:043:1,2014-02-01T01:00:00Z,27.8838,-97.5332,0.0,33.1,1111122 
TCOON,ioos:station:TCOON:043:1,2014-02-01T02:00:00Z,27.8838,-97.5332,0.0,33.0,1111122 
TCOON,ioos:station:TCOON:043:1,2014-02-01T04:00:00Z,27.8838,-97.5332,0.0,33.4,1111122 
TCOON,ioos:station:TCOON:043:1,2014-02-01T04:30:00Z,27.8838,-97.5332,0.0,33.5,1111122 
TCOON,ioos:station:TCOON:043:1,2014-02-01T06:30:00Z,27.8838,-97.5332,0.0,33.3,1111122 
TCOON,ioos:station:TCOON:043:1,2014-02-01T08:30:00Z,27.8838,-97.5332,0.0,33.3,1111122 
TCOON,ioos:station:TCOON:043:1,2014-02-01T09:00:00Z,27.8838,-97.5332,0.0,33.4,1111122 
TCOON,ioos:station:TCOON:043:1,2014-02-01T09:30:00Z,27.8838,-97.5332,0.0,33.4,1111122 
TCOON,ioos:station:TCOON:043:1,2014-02-01T11:00:00Z,27.8838,-97.5332,0.0,33.2,1111122 
TCOON,ioos:station:TCOON:043:1,2014-02-01T11:30:00Z,27.8838,-97.5332,0.0,33.2,1111122 
TCOON,ioos:station:TCOON:043:1,2014-02-01T12:00:00Z,27.8838,-97.5332,0.0,33.2,1111122 
TCOON,ioos:station:TCOON:043:1,2014-02-01T12:30:00Z,27.8838,-97.5332,0.0,33.1,1111122 
TCOON,ioos:station:TCOON:043:1,2014-02-01T14:30:00Z,27.8838,-97.5332,0.0,32.1,1111122 
TCOON,ioos:station:TCOON:043:1,2014-02-01T15:30:00Z,27.8838,-97.5332,0.0,33.2,1111122 
TCOON,ioos:station:TCOON:043:1,2014-02-01T16:30:00Z,27.8838,-97.5332,0.0,33.0,1111122 
TCOON,ioos:station:TCOON:043:1,2014-02-01T17:00:00Z,27.8838,-97.5332,0.0,33.0,1111122 
TCOON,ioos:station:TCOON:043:1,2014-02-01T17:30:00Z,27.8838,-97.5332,0.0,32.3,1111122 
TCOON,ioos:station:TCOON:043:1,2014-02-01T18:30:00Z,27.8838,-97.5332,0.0,32.6,1111122 
TCOON,ioos:station:TCOON:043:1,2014-02-01T19:00:00Z,27.8838,-97.5332,0.0,31.2,1111122 
TCOON,ioos:station:TCOON:043:1,2014-02-01T19:30:00Z,27.8838,-97.5332,0.0,32.9,1111122 
TCOON,ioos:station:TCOON:043:1,2014-02-01T20:00:00Z,27.8838,-97.5332,0.0,32.9,1111122 
TCOON,ioos:station:TCOON:043:1,2014-02-01T21:00:00Z,27.8838,-97.5332,0.0,32.9,1111122 
TCOON,ioos:station:TCOON:043:1,2014-02-01T21:30:00Z,27.8838,-97.5332,0.0,32.9,1111122 
TCOON,ioos:station:TCOON:043:1,2014-02-01T22:00:00Z,27.8838,-97.5332,0.0,33.0,1111122 
TCOON,ioos:station:TCOON:043:1,2014-02-01T23:00:00Z,27.8838,-97.5332,0.0,32.9,1111122 
TCOON,ioos:station:TCOON:043:1,2014-02-01T23:30:00Z,27.8838,-97.5332,0.0,32.8,1111122 
TCOON,ioos:station:TCOON:043:1,2014-02-02T00:00:00Z,27.8838,-97.5332,0.0,33.1,1111122 
TCOON,ioos:station:TCOON:043:1,2014-02-02T00:30:00Z,27.8838,-97.5332,0.0,32.9,1111122 
TCOON,ioos:station:TCOON:043:1,2014-02-02T01:30:00Z,27.8838,-97.5332,0.0,32.9,1111122 
TCOON,ioos:station:TCOON:043:1,2014-02-02T03:30:00Z,27.8838,-97.5332,0.0,33.0,1111122 
TCOON,ioos:station:TCOON:043:1,2014-02-02T04:30:00Z,27.8838,-97.5332,0.0,33.0,1111122 
TCOON,ioos:station:TCOON:043:1,2014-02-02T06:30:00Z,27.8838,-97.5332,0.0,33.1,1111122 
TCOON,ioos:station:TCOON:043:1,2014-02-02T07:30:00Z,27.8838,-97.5332,0.0,33.1,1111122 
TCOON,ioos:station:TCOON:043:1,2014-02-02T08:00:00Z,27.8838,-97.5332,0.0,33.1,1111122 
TCOON,ioos:station:TCOON:043:1,2014-02-02T10:30:00Z,27.8838,-97.5332,0.0,33.7,1111122 
TCOON,ioos:station:TCOON:043:1,2014-02-02T12:30:00Z,27.8838,-97.5332,0.0,34.0,1111122 
TCOON,ioos:station:TCOON:043:1,2014-02-02T13:30:00Z,27.8838,-97.5332,0.0,33.0,1111122 
TCOON,ioos:station:TCOON:043:1,2014-02-02T14:00:00Z,27.8838,-97.5332,0.0,31.5,1111122 
TCOON,ioos:station:TCOON:043:1,2014-02-02T16:00:00Z,27.8838,-97.5332,0.0,34.1,1111122 
TCOON,ioos:station:TCOON:043:1,2014-02-02T18:30:00Z,27.8838,-97.5332,0.0,33.4,1111122 
TCOON,ioos:station:TCOON:043:1,2014-02-02T19:00:00Z,27.8838,-97.5332,0.0,32.4,1111122 
TCOON,ioos:station:TCOON:043:1,2014-02-02T20:30:00Z,27.8838,-97.5332,0.0,32.7,1111122 
TCOON,ioos:station:TCOON:043:1,2014-02-02T21:00:00Z,27.8838,-97.5332,0.0,32.2,1111122 
TCOON,ioos:station:TCOON:043:1,2014-02-02T22:00:00Z,27.8838,-97.5332,0.0,31.1,1111122 
TCOON,ioos:station:TCOON:043:1,2014-02-02T23:30:00Z,27.8838,-97.5332,0.0,30.2,1111122 
TCOON,ioos:station:TCOON:043:1,2014-02-03T00:00:00Z,27.8838,-97.5332,0.0,31.1,1111122 
TCOON,ioos:station:TCOON:043:1,2014-02-03T00:30:00Z,27.8838,-97.5332,0.0,31.0,1111122 
TCOON,ioos:station:TCOON:043:1,2014-02-03T02:00:00Z,27.8838,-97.5332,0.0,27.0,1111122 
TCOON,ioos:station:TCOON:043:1,2014-02-03T05:00:00Z,27.8838,-97.5332,0.0,26.9,1111122 
TCOON,ioos:station:TCOON:043:1,2014-02-03T05:30:00Z,27.8838,-97.5332,0.0,26.8,1111122 
TCOON,ioos:station:TCOON:043:1,2014-02-03T07:00:00Z,27.8838,-97.5332,0.0,27.3,1111122 
TCOON,ioos:station:TCOON:043:1,2014-02-03T07:30:00Z,27.8838,-97.5332,0.0,27.1,1111122 
TCOON,ioos:station:TCOON:043:1,2014-02-03T08:00:00Z,27.8838,-97.5332,0.0,26.3,1111122 
TCOON,ioos:station:TCOON:043:1,2014-02-03T08:30:00Z,27.8838,-97.5332,0.0,27.5,1111122 
TCOON,ioos:station:TCOON:043:1,2014-02-03T10:00:00Z,27.8838,-97.5332,0.0,26.3,1111122 
TCOON,ioos:station:TCOON:043:1,2014-02-03T11:00:00Z,27.8838,-97.5332,0.0,26.5,1111122 
TCOON,ioos:station:TCOON:043:1,2014-02-03T12:00:00Z,27.8838,-97.5332,0.0,26.8,1111122 
TCOON,ioos:station:TCOON:043:1,2014-02-03T13:30:00Z,27.8838,-97.5332,0.0,23.6,1111122 
TCOON,ioos:station:TCOON:043:1,2014-02-03T15:30:00Z,27.8838,-97.5332,0.0,24.4,1111122 
TCOON,ioos:station:TCOON:043:1,2014-02-03T16:00:00Z,27.8838,-97.5332,0.0,22.6,1111122 
TCOON,ioos:station:TCOON:043:1,2014-02-03T17:30:00Z,27.8838,-97.5332,0.0,21.5,1111122 
TCOON,ioos:station:TCOON:043:1,2014-02-03T18:30:00Z,27.8838,-97.5332,0.0,24.2,1111122 
TCOON,ioos:station:TCOON:043:1,2014-02-03T19:00:00Z,27.8838,-97.5332,0.0,23.8,1111122 
TCOON,ioos:station:TCOON:043:1,2014-02-03T20:00:00Z,27.8838,-97.5332,0.0,22.8,1111122 
TCOON,ioos:station:TCOON:043:1,2014-02-03T20:30:00Z,27.8838,-97.5332,0.0,22.4,1111122 
TCOON,ioos:station:TCOON:043:1,2014-02-03T22:00:00Z,27.8838,-97.5332,0.0,22.8,1111122 
TCOON,ioos:station:TCOON:043:1,2014-02-03T22:30:00Z,27.8838,-97.5332,0.0,23.8,1111122 
TCOON,ioos:station:TCOON:043:1,2014-02-04T02:00:00Z,27.8838,-97.5332,0.0,26.9,1111122 
TCOON,ioos:station:TCOON:043:1,2014-02-04T02:30:00Z,27.8838,-97.5332,0.0,26.8,1111122 
TCOON,ioos:station:TCOON:043:1,2014-02-04T03:00:00Z,27.8838,-97.5332,0.0,25.4,1111122 
TCOON,ioos:station:TCOON:043:1,2014-02-04T03:30:00Z,27.8838,-97.5332,0.0,24.6,1111122 
TCOON,ioos:station:TCOON:043:1,2014-02-04T04:30:00Z,27.8838,-97.5332,0.0,26.4,1111122 
TCOON,ioos:station:TCOON:043:1,2014-02-04T05:30:00Z,27.8838,-97.5332,0.0,25.0,1111122 
TCOON,ioos:station:TCOON:043:1,2014-02-04T06:00:00Z,27.8838,-97.5332,0.0,25.2,1111122 
TCOON,ioos:station:TCOON:043:1,2014-02-04T06:30:00Z,27.8838,-97.5332,0.0,24.6,1111122 
TCOON,ioos:station:TCOON:043:1,2014-02-04T07:00:00Z,27.8838,-97.5332,0.0,26.4,1111122 
TCOON,ioos:station:TCOON:043:1,2014-02-04T07:30:00Z,27.8838,-97.5332,0.0,23.9,1111122 
TCOON,ioos:station:TCOON:043:1,2014-02-14T14:30:00Z,27.8838,-97.5332,0.0,1.3,1111122 
TCOON,ioos:station:TCOON:043:1,2014-02-14T15:30:00Z,27.8838,-97.5332,0.0,1.3,1111122 
TCOON,ioos:station:TCOON:043:1,2014-02-14T16:00:00Z,27.8838,-97.5332,0.0,1.3,1111122 
TCOON,ioos:station:TCOON:043:1,2014-02-14T17:00:00Z,27.8838,-97.5332,0.0,1.3,1111122 
TCOON,ioos:station:TCOON:043:1,2014-02-14T17:30:00Z,27.8838,-97.5332,0.0,1.3,1111122 
TCOON,ioos:station:TCOON:043:1,2014-02-14T18:30:00Z,27.8838,-97.5332,0.0,1.3,1111122 
TCOON,ioos:station:TCOON:043:1,2014-02-14T19:30:00Z,27.8838,-97.5332,0.0,1.3,1111122 
TCOON,ioos:station:TCOON:043:1,2014-02-14T21:00:00Z,27.8838,-97.5332,0.0,1.4,1111122 
TCOON,ioos:station:TCOON:043:1,2014-02-14T21:30:00Z,27.8838,-97.5332,0.0,1.4,1111122 
TCOON,ioos:station:TCOON:043:1,2014-02-14T22:00:00Z,27.8838,-97.5332,0.0,1.4,1111122 
TCOON,ioos:station:TCOON:043:1,2014-02-14T22:30:00Z,27.8838,-97.5332,0.0,1.4,1111122 
TCOON,ioos:station:TCOON:043:1,2014-02-15T00:00:00Z,27.8838,-97.5332,0.0,1.4,1111122 
TCOON,ioos:station:TCOON:043:1,2014-02-15T00:30:00Z,27.8838,-97.5332,0.0,1.4,1111122 
TCOON,ioos:station:TCOON:043:1,2014-02-15T01:30:00Z,27.8838,-97.5332,0.0,1.3,1111122 
TCOON,ioos:station:TCOON:043:1,2014-02-15T02:00:00Z,27.8838,-97.5332,0.0,1.4,1111122 
TCOON,ioos:station:TCOON:043:1,2014-02-15T02:30:00Z,27.8838,-97.5332,0.0,1.4,1111122 
TCOON,ioos:station:TCOON:043:1,2014-02-15T03:00:00Z,27.8838,-97.5332,0.0,1.4,1111122 
TCOON,ioos:station:TCOON:043:1,2014-02-15T03:30:00Z,27.8838,-97.5332,0.0,1.4,1111122 
TCOON,ioos:station:TCOON:043:1,2014-02-15T04:30:00Z,27.8838,-97.5332,0.0,1.3,1111122 
TCOON,ioos:station:TCOON:043:1,2014-02-15T05:00:00Z,27.8838,-97.5332,0.0,1.4,1111122 
TCOON,ioos:station:TCOON:043:1,2014-02-15T05:30:00Z,27.8838,-97.5332,0.0,1.4,1111122 
TCOON,ioos:station:TCOON:043:1,2014-02-15T06:00:00Z,27.8838,-97.5332,0.0,1.4,1111122 
TCOON,ioos:station:TCOON:043:1,2014-02-15T06:30:00Z,27.8838,-97.5332,0.0,1.4,1111122 
TCOON,ioos:station:TCOON:043:1,2014-02-15T07:00:00Z,27.8838,-97.5332,0.0,1.4,1111122 
TCOON,ioos:station:TCOON:043:1,2014-02-15T08:00:00Z,27.8838,-97.5332,0.0,1.4,1111122 
TCOON,ioos:station:TCOON:043:1,2014-02-15T08:30:00Z,27.8838,-97.5332,0.0,1.4,1111122 
TCOON,ioos:station:TCOON:043:1,2014-02-15T09:00:00Z,27.8838,-97.5332,0.0,1.4,1111122 
TCOON,ioos:station:TCOON:043:1,2014-02-15T09:30:00Z,27.8838,-97.5332,0.0,1.4,1111122 
TCOON,ioos:station:TCOON:043:1,2014-02-15T14:00:00Z,27.8838,-97.5332,0.0,1.4,1111122 
TCOON,ioos:station:TCOON:043:1,2014-02-15T14:30:00Z,27.8838,-97.5332,0.0,1.5,1111122 
TCOON,ioos:station:TCOON:043:1,2014-02-15T15:00:00Z,27.8838,-97.5332,0.0,1.4,1111122 
TCOON,ioos:station:TCOON:043:1,2014-02-15T15:30:00Z,27.8838,-97.5332,0.0,1.4,1111122 
TCOON,ioos:station:TCOON:043:1,2014-02-15T16:00:00Z,27.8838,-97.5332,0.0,1.4,1111122 
TCOON,ioos:station:TCOON:043:1,2014-02-15T16:30:00Z,27.8838,-97.5332,0.0,1.4,1111122 
TCOON,ioos:station:TCOON:043:1,2014-02-15T17:00:00Z,27.8838,-97.5332,0.0,1.3,1111122 
TCOON,ioos:station:TCOON:043:1,2014-02-15T17:30:00Z,27.8838,-97.5332,0.0,1.4,1111122 
TCOON,ioos:station:TCOON:043:1,2014-02-15T18:30:00Z,27.8838,-97.5332,0.0,1.4,1111122 
TCOON,ioos:station:TCOON:043:1,2014-02-15T20:30:00Z,27.8838,-97.5332,0.0,1.5,1111122 
TCOON,ioos:station:TCOON:043:1,2014-02-15T21:30:00Z,27.8838,-97.5332,0.0,1.6,1111122 
TCOON,ioos:station:TCOON:043:1,2014-02-15T22:00:00Z,27.8838,-97.5332,0.0,1.6,1111122 
TCOON,ioos:station:TCOON:043:1,2014-02-15T23:00:00Z,27.8838,-97.5332,0.0,1.6,1111122 
TCOON,ioos:station:TCOON:043:1,2014-02-15T23:30:00Z,27.8838,-97.5332,0.0,1.6,1111122 
TCOON,ioos:station:TCOON:043:1,2014-02-16T00:00:00Z,27.8838,-97.5332,0.0,1.6,1111122 
TCOON,ioos:station:TCOON:043:1,2014-02-16T00:30:00Z,27.8838,-97.5332,0.0,1.7,1111122 
TCOON,ioos:station:TCOON:043:1,2014-02-16T01:00:00Z,27.8838,-97.5332,0.0,1.7,1111122 
TCOON,ioos:station:TCOON:043:1,2014-02-16T01:30:00Z,27.8838,-97.5332,0.0,1.8,1111122 
TCOON,ioos:station:TCOON:043:1,2014-02-16T02:00:00Z,27.8838,-97.5332,0.0,1.8,1111122 
TCOON,ioos:station:TCOON:043:1,2014-02-16T05:00:00Z,27.8838,-97.5332,0.0,1.7,1111122 
TCOON,ioos:station:TCOON:043:1,2014-02-16T07:30:00Z,27.8838,-97.5332,0.0,1.5,1111122 
TCOON,ioos:station:TCOON:043:1,2014-02-16T08:00:00Z,27.8838,-97.5332,0.0,1.5,1111122 
TCOON,ioos:station:TCOON:043:1,2014-02-16T08:30:00Z,27.8838,-97.5332,0.0,1.6,1111122 
TCOON,ioos:station:TCOON:043:1,2014-02-16T09:30:00Z,27.8838,-97.5332,0.0,1.5,1111122 
TCOON,ioos:station:TCOON:043:1,2014-02-16T11:30:00Z,27.8838,-97.5332,0.0,1.5,1111122 
TCOON,ioos:station:TCOON:043:1,2014-02-16T13:30:00Z,27.8838,-97.5332,0.0,1.6,1111122 
TCOON,ioos:station:TCOON:043:1,2014-02-16T14:30:00Z,27.8838,-97.5332,0.0,1.6,1111122 
TCOON,ioos:station:TCOON:043:1,2014-02-16T15:00:00Z,27.8838,-97.5332,0.0,1.7,1111122 
TCOON,ioos:station:TCOON:043:1,2014-02-16T15:30:00Z,27.8838,-97.5332,0.0,1.7,1111122 
TCOON,ioos:station:TCOON:043:1,2014-02-16T16:00:00Z,27.8838,-97.5332,0.0,1.7,1111122 
TCOON,ioos:station:TCOON:043:1,2014-02-16T17:30:00Z,27.8838,-97.5332,0.0,1.6,1111122 
TCOON,ioos:station:TCOON:043:1,2014-02-16T18:30:00Z,27.8838,-97.5332,0.0,1.7,1111122 
TCOON,ioos:station:TCOON:043:1,2014-02-16T19:00:00Z,27.8838,-97.5332,0.0,1.7,1111122 
TCOON,ioos:station:TCOON:043:1,2014-02-16T19:30:00Z,27.8838,-97.5332,0.0,1.7,1111122 
TCOON,ioos:station:TCOON:043:1,2014-02-16T20:00:00Z,27.8838,-97.5332,0.0,1.7,1111122 
TCOON,ioos:station:TCOON:043:1,2014-02-16T21:00:00Z,27.8838,-97.5332,0.0,1.7,1111122 
TCOON,ioos:station:TCOON:043:1,2014-02-16T22:00:00Z,27.8838,-97.5332,0.0,1.7,1111122 
TCOON,ioos:station:TCOON:043:1,2014-02-16T23:00:00Z,27.8838,-97.5332,0.0,1.7,1111122 
TCOON,ioos:station:TCOON:043:1,2014-02-17T01:30:00Z,27.8838,-97.5332,0.0,1.9,1111122 
TCOON,ioos:station:TCOON:043:1,2014-02-17T02:00:00Z,27.8838,-97.5332,0.0,2.0,1111122 
TCOON,ioos:station:TCOON:043:1,2014-02-17T02:30:00Z,27.8838,-97.5332,0.0,2.1,1111122 
TCOON,ioos:station:TCOON:043:1,2014-02-17T04:00:00Z,27.8838,-97.5332,0.0,2.2,1111122 
TCOON,ioos:station:TCOON:043:1,2014-02-17T04:30:00Z,27.8838,-97.5332,0.0,2.2,1111122 
TCOON,ioos:station:TCOON:043:1,2014-02-17T05:00:00Z,27.8838,-97.5332,0.0,2.2,1111122 
TCOON,ioos:station:TCOON:043:1,2014-02-17T05:30:00Z,27.8838,-97.5332,0.0,2.3,1111122 
TCOON,ioos:station:TCOON:043:1,2014-02-17T07:00:00Z,27.8838,-97.5332,0.0,2.3,1111122 
TCOON,ioos:station:TCOON:043:1,2014-02-17T09:30:00Z,27.8838,-97.5332,0.0,2.3,1111122 
TCOON,ioos:station:TCOON:043:1,2014-02-17T11:30:00Z,27.8838,-97.5332,0.0,2.5,1111122 
TCOON,ioos:station:TCOON:043:1,2014-02-17T12:00:00Z,27.8838,-97.5332,0.0,2.6,1111122 
TCOON,ioos:station:TCOON:043:1,2014-02-17T13:30:00Z,27.8838,-97.5332,0.0,2.7,1111122 
TCOON,ioos:station:TCOON:043:1,2014-02-17T15:00:00Z,27.8838,-97.5332,0.0,2.6,1111122 
TCOON,ioos:station:TCOON:043:1,2014-02-17T15:30:00Z,27.8838,-97.5332,0.0,2.5,1111122 
TCOON,ioos:station:TCOON:043:1,2014-02-17T16:30:00Z,27.8838,-97.5332,0.0,2.6,1111122 
TCOON,ioos:station:TCOON:043:1,2014-02-17T19:00:00Z,27.8838,-97.5332,0.0,2.5,1111122 
TCOON,ioos:station:TCOON:043:1,2014-02-17T19:30:00Z,27.8838,-97.5332,0.0,2.5,1111122 
TCOON,ioos:station:TCOON:043:1,2014-02-17T20:00:00Z,27.8838,-97.5332,0.0,2.5,1111122 
TCOON,ioos:station:TCOON:043:1,2014-02-17T20:30:00Z,27.8838,-97.5332,0.0,2.5,1111122 
TCOON,ioos:station:TCOON:043:1,2014-02-18T00:30:00Z,27.8838,-97.5332,0.0,2.5,1111122 
TCOON,ioos:station:TCOON:043:1,2014-02-18T01:30:00Z,27.8838,-97.5332,0.0,2.6,1111122 
TCOON,ioos:station:TCOON:043:1,2014-02-18T21:00:00Z,27.8838,-97.5332,0.0,3.7,1111122 
TCOON,ioos:station:TCOON:043:1,2014-02-19T15:00:00Z,27.8838,-97.5332,0.0,5.3,1111122 
TCOON,ioos:station:TCOON:043:1,2014-02-19T15:30:00Z,27.8838,-97.5332,0.0,5.3,1111122 
TCOON,ioos:station:TCOON:043:1,2014-02-19T17:30:00Z,27.8838,-97.5332,0.0,5.2,1111122 
TCOON,ioos:station:TCOON:043:1,2014-02-19T20:00:00Z,27.8838,-97.5332,0.0,5.0,1111122 
TCOON,ioos:station:TCOON:043:1,2014-02-19T21:00:00Z,27.8838,-97.5332,0.0,5.9,1111122 
TCOON,ioos:station:TCOON:043:1,2014-02-19T22:00:00Z,27.8838,-97.5332,0.0,8.5,1111122 
TCOON,ioos:station:TCOON:043:1,2014-02-19T23:30:00Z,27.8838,-97.5332,0.0,21.0,1111122 
TCOON,ioos:station:TCOON:043:1,2014-02-20T00:00:00Z,27.8838,-97.5332,0.0,22.5,1111122 
TCOON,ioos:station:TCOON:043:1,2014-02-20T01:30:00Z,27.8838,-97.5332,0.0,22.7,1111122 
TCOON,ioos:station:TCOON:043:1,2014-02-20T02:00:00Z,27.8838,-97.5332,0.0,24.3,1111122 
TCOON,ioos:station:TCOON:043:1,2014-02-20T03:00:00Z,27.8838,-97.5332,0.0,25.2,1111122 
TCOON,ioos:station:TCOON:043:1,2014-02-20T04:00:00Z,27.8838,-97.5332,0.0,25.4,1111122 
TCOON,ioos:station:TCOON:043:1,2014-02-20T05:30:00Z,27.8838,-97.5332,0.0,25.2,1111122 
TCOON,ioos:station:TCOON:043:1,2014-02-20T06:00:00Z,27.8838,-97.5332,0.0,25.2,1111122 
TCOON,ioos:station:TCOON:043:1,2014-02-20T07:00:00Z,27.8838,-97.5332,0.0,24.5,1111122 
TCOON,ioos:station:TCOON:043:1,2014-02-20T08:00:00Z,27.8838,-97.5332,0.0,23.8,1111122 
TCOON,ioos:station:TCOON:043:1,2014-02-20T09:00:00Z,27.8838,-97.5332,0.0,24.6,1111122 
TCOON,ioos:station:TCOON:043:1,2014-02-20T10:00:00Z,27.8838,-97.5332,0.0,24.2,1111122 
TCOON,ioos:station:TCOON:043:1,2014-02-20T11:30:00Z,27.8838,-97.5332,0.0,19.6,1111122 
TCOON,ioos:station:TCOON:043:1,2014-02-20T12:00:00Z,27.8838,-97.5332,0.0,18.5,1111122 
TCOON,ioos:station:TCOON:043:1,2014-02-20T14:30:00Z,27.8838,-97.5332,0.0,19.2,1111122 
TCOON,ioos:station:TCOON:043:1,2014-02-20T19:00:00Z,27.8838,-97.5332,0.0,15.3,1111122 
TCOON,ioos:station:TCOON:043:1,2014-02-20T20:00:00Z,27.8838,-97.5332,0.0,15.0,1111122 
TCOON,ioos:station:TCOON:043:1,2014-02-20T21:00:00Z,27.8838,-97.5332,0.0,15.3,1111122 
TCOON,ioos:station:TCOON:043:1,2014-02-20T22:00:00Z,27.8838,-97.5332,0.0,16.1,1111122 
TCOON,ioos:station:TCOON:043:1,2014-02-20T23:30:00Z,27.8838,-97.5332,0.0,16.4,1111122 
TCOON,ioos:station:TCOON:043:1,2014-02-21T00:00:00Z,27.8838,-97.5332,0.0,16.8,1111122 
TCOON,ioos:station:TCOON:043:1,2014-02-21T01:30:00Z,27.8838,-97.5332,0.0,15.9,1111122 
TCOON,ioos:station:TCOON:043:1,2014-02-21T02:00:00Z,27.8838,-97.5332,0.0,14.5,1111122 
TCOON,ioos:station:TCOON:043:1,2014-02-21T03:00:00Z,27.8838,-97.5332,0.0,12.8,1111122 
TCOON,ioos:station:TCOON:043:1,2014-02-21T04:00:00Z,27.8838,-97.5332,0.0,10.2,1111122 
TCOON,ioos:station:TCOON:043:1,2014-02-21T05:00:00Z,27.8838,-97.5332,0.0,8.5,1111122 
TCOON,ioos:station:TCOON:043:1,2014-02-21T06:00:00Z,27.8838,-97.5332,0.0,8.2,1111122 
TCOON,ioos:station:TCOON:043:1,2014-02-21T08:00:00Z,27.8838,-97.5332,0.0,8.0,1111122 
TCOON,ioos:station:TCOON:043:1,2014-02-21T09:30:00Z,27.8838,-97.5332,0.0,7.5,1111122 
TCOON,ioos:station:TCOON:043:1,2014-02-21T10:00:00Z,27.8838,-97.5332,0.0,7.4,1111122 
TCOON,ioos:station:TCOON:043:1,2014-02-21T11:00:00Z,27.8838,-97.5332,0.0,7.2,1111122 
TCOON,ioos:station:TCOON:043:1,2014-02-21T12:00:00Z,27.8838,-97.5332,0.0,6.6,1111122 
TCOON,ioos:station:TCOON:043:1,2014-02-21T13:00:00Z,27.8838,-97.5332,0.0,7.3,1111122 
TCOON,ioos:station:TCOON:043:1,2014-02-21T14:00:00Z,27.8838,-97.5332,0.0,6.7,1111122 
TCOON,ioos:station:TCOON:043:1,2014-02-21T15:00:00Z,27.8838,-97.5332,0.0,6.4,1111122 
TCOON,ioos:station:TCOON:043:1,2014-02-21T16:00:00Z,27.8838,-97.5332,0.0,6.5,1111122 
TCOON,ioos:station:TCOON:043:1,2014-02-21T17:30:00Z,27.8838,-97.5332,0.0,6.7,1111122 
TCOON,ioos:station:TCOON:043:1,2014-02-21T19:00:00Z,27.8838,-97.5332,0.0,7.3,1111122 
TCOON,ioos:station:TCOON:043:1,2014-02-21T20:00:00Z,27.8838,-97.5332,0.0,20.2,1111122 
TCOON,ioos:station:TCOON:043:1,2014-02-21T21:00:00Z,27.8838,-97.5332,0.0,25.4,1111122 
TCOON,ioos:station:TCOON:043:1,2014-02-21T22:00:00Z,27.8838,-97.5332,0.0,24.5,1111122 
TCOON,ioos:station:TCOON:043:1,2014-02-22T01:00:00Z,27.8838,-97.5332,0.0,24.9,1111122 
TCOON,ioos:station:TCOON:043:1,2014-02-22T02:00:00Z,27.8838,-97.5332,0.0,25.8,1111122 
TCOON,ioos:station:TCOON:043:1,2014-02-22T03:00:00Z,27.8838,-97.5332,0.0,26.0,1111122 
TCOON,ioos:station:TCOON:043:1,2014-02-22T04:00:00Z,27.8838,-97.5332,0.0,25.7,1111122 
TCOON,ioos:station:TCOON:043:1,2014-02-22T05:00:00Z,27.8838,-97.5332,0.0,26.3,1111122 
TCOON,ioos:station:TCOON:043:1,2014-02-22T07:00:00Z,27.8838,-97.5332,0.0,25.9,1111122 
TCOON,ioos:station:TCOON:043:1,2014-02-22T08:00:00Z,27.8838,-97.5332,0.0,23.7,1111122 
TCOON,ioos:station:TCOON:043:1,2014-02-22T11:00:00Z,27.8838,-97.5332,0.0,17.3,1111122 
TCOON,ioos:station:TCOON:043:1,2014-02-22T11:30:00Z,27.8838,-97.5332,0.0,15.7,1111122 
TCOON,ioos:station:TCOON:043:1,2014-02-22T12:30:00Z,27.8838,-97.5332,0.0,14.1,1111122 
TCOON,ioos:station:TCOON:043:1,2014-02-22T13:00:00Z,27.8838,-97.5332,0.0,13.4,1111122 
TCOON,ioos:station:TCOON:043:1,2014-02-22T13:30:00Z,27.8838,-97.5332,0.0,12.8,1111122 
TCOON,ioos:station:TCOON:043:1,2014-02-22T14:00:00Z,27.8838,-97.5332,0.0,12.3,1111122 
TCOON,ioos:station:TCOON:043:1,2014-02-22T14:30:00Z,27.8838,-97.5332,0.0,12.0,1111122 
TCOON,ioos:station:TCOON:043:1,2014-02-22T16:00:00Z,27.8838,-97.5332,0.0,9.8,1111122 
TCOON,ioos:station:TCOON:043:1,2014-02-22T17:00:00Z,27.8838,-97.5332,0.0,9.7,1111122 
TCOON,ioos:station:TCOON:043:1,2014-02-22T17:30:00Z,27.8838,-97.5332,0.0,9.7,1111122 
TCOON,ioos:station:TCOON:043:1,2014-02-22T18:30:00Z,27.8838,-97.5332,0.0,9.7,1111122 
TCOON,ioos:station:TCOON:043:1,2014-02-22T19:00:00Z,27.8838,-97.5332,0.0,9.8,1111122 
TCOON,ioos:station:TCOON:043:1,2014-02-22T19:30:00Z,27.8838,-97.5332,0.0,9.9,1111122 
TCOON,ioos:station:TCOON:043:1,2014-02-22T20:00:00Z,27.8838,-97.5332,0.0,10.0,1111122 
TCOON,ioos:station:TCOON:043:1,2014-02-22T20:30:00Z,27.8838,-97.5332,0.0,9.6,1111122 
TCOON,ioos:station:TCOON:043:1,2014-02-22T21:00:00Z,27.8838,-97.5332,0.0,10.0,1111122 
TCOON,ioos:station:TCOON:043:1,2014-02-22T23:00:00Z,27.8838,-97.5332,0.0,11.6,1111122 
TCOON,ioos:station:TCOON:043:1,2014-02-22T23:30:00Z,27.8838,-97.5332,0.0,14.8,1111122 
TCOON,ioos:station:TCOON:043:1,2014-02-23T01:00:00Z,27.8838,-97.5332,0.0,27.5,1111122 
TCOON,ioos:station:TCOON:043:1,2014-02-23T01:30:00Z,27.8838,-97.5332,0.0,27.6,1111122 
TCOON,ioos:station:TCOON:043:1,2014-02-23T02:30:00Z,27.8838,-97.5332,0.0,26.7,1111122 
TCOON,ioos:station:TCOON:043:1,2014-02-23T03:00:00Z,27.8838,-97.5332,0.0,25.6,1111122 
TCOON,ioos:station:TCOON:043:1,2014-02-23T03:30:00Z,27.8838,-97.5332,0.0,25.6,1111122 
TCOON,ioos:station:TCOON:043:1,2014-02-23T05:30:00Z,27.8838,-97.5332,0.0,25.6,1111122 
TCOON,ioos:station:TCOON:043:1,2014-02-23T06:30:00Z,27.8838,-97.5332,0.0,25.6,1111122 
TCOON,ioos:station:TCOON:043:1,2014-02-23T07:30:00Z,27.8838,-97.5332,0.0,25.7,1111122 
TCOON,ioos:station:TCOON:043:1,2014-02-23T09:30:00Z,27.8838,-97.5332,0.0,24.1,1111122 
TCOON,ioos:station:TCOON:043:1,2014-02-23T10:00:00Z,27.8838,-97.5332,0.0,25.4,1111122 
TCOON,ioos:station:TCOON:043:1,2014-02-23T10:30:00Z,27.8838,-97.5332,0.0,25.1,1111122 
TCOON,ioos:station:TCOON:043:1,2014-02-23T11:00:00Z,27.8838,-97.5332,0.0,23.8,1111122 
TCOON,ioos:station:TCOON:043:1,2014-02-23T12:00:00Z,27.8838,-97.5332,0.0,23.1,1111122 
TCOON,ioos:station:TCOON:043:1,2014-02-23T12:30:00Z,27.8838,-97.5332,0.0,23.3,1111122 
TCOON,ioos:station:TCOON:043:1,2014-02-23T13:30:00Z,27.8838,-97.5332,0.0,19.6,1111122 
TCOON,ioos:station:TCOON:043:1,2014-02-23T14:00:00Z,27.8838,-97.5332,0.0,18.2,1111122 
TCOON,ioos:station:TCOON:043:1,2014-02-23T14:30:00Z,27.8838,-97.5332,0.0,16.9,1111122 
TCOON,ioos:station:TCOON:043:1,2014-02-23T16:30:00Z,27.8838,-97.5332,0.0,14.1,1111122 
TCOON,ioos:station:TCOON:043:1,2014-02-23T17:30:00Z,27.8838,-97.5332,0.0,12.3,1111122 
TCOON,ioos:station:TCOON:043:1,2014-02-23T18:30:00Z,27.8838,-97.5332,0.0,11.0,1111122 
TCOON,ioos:station:TCOON:043:1,2014-02-23T19:00:00Z,27.8838,-97.5332,0.0,11.0,1111122 
TCOON,ioos:station:TCOON:043:1,2014-02-23T19:30:00Z,27.8838,-97.5332,0.0,10.9,1111122 
TCOON,ioos:station:TCOON:043:1,2014-02-23T20:00:00Z,27.8838,-97.5332,0.0,10.9,1111122 
TCOON,ioos:station:TCOON:043:1,2014-02-23T20:30:00Z,27.8838,-97.5332,0.0,10.8,1111122 
TCOON,ioos:station:TCOON:043:1,2014-02-23T21:00:00Z,27.8838,-97.5332,0.0,11.1,1111122 
TCOON,ioos:station:TCOON:043:1,2014-02-23T21:30:00Z,27.8838,-97.5332,0.0,10.9,1111122 
TCOON,ioos:station:TCOON:043:1,2014-02-23T22:00:00Z,27.8838,-97.5332,0.0,10.9,1111122 
TCOON,ioos:station:TCOON:043:1,2014-02-24T00:00:00Z,27.8838,-97.5332,0.0,11.4,1111122 
TCOON,ioos:station:TCOON:043:1,2014-02-24T00:30:00Z,27.8838,-97.5332,0.0,12.8,1111122 
TCOON,ioos:station:TCOON:043:1,2014-02-24T03:00:00Z,27.8838,-97.5332,0.0,25.1,1111122 
TCOON,ioos:station:TCOON:043:1,2014-02-24T08:00:00Z,27.8838,-97.5332,0.0,23.7,1111122 
TCOON,ioos:station:TCOON:043:1,2014-02-24T09:00:00Z,27.8838,-97.5332,0.0,23.3,1111122 
TCOON,ioos:station:TCOON:043:1,2014-02-24T10:30:00Z,27.8838,-97.5332,0.0,21.8,1111122 
TCOON,ioos:station:TCOON:043:1,2014-02-24T11:00:00Z,27.8838,-97.5332,0.0,20.4,1111122 
TCOON,ioos:station:TCOON:043:1,2014-02-24T11:30:00Z,27.8838,-97.5332,0.0,18.7,1111122 
TCOON,ioos:station:TCOON:043:1,2014-02-24T13:30:00Z,27.8838,-97.5332,0.0,12.4,1111122 
TCOON,ioos:station:TCOON:043:1,2014-02-24T15:00:00Z,27.8838,-97.5332,0.0,12.4,1111122 
TCOON,ioos:station:TCOON:043:1,2014-02-24T16:30:00Z,27.8838,-97.5332,0.0,12.0,1111122 